Terug naar catalogus

STARLINK-2330

ActiefCommunicatieVLEO
NORAD 47874·PAYLOAD·🇺🇸 United States

Gelanceerd Mar 14, 2021 vanaf Cape Canaveral Space Force Station

Loading…

Volgende Passages (komende 24 uur)

TLE

VersSource: CelesTrak SupGP

Epoch: Sep 14, 2026, 20:30 UTC

1 47874C 21021Q   26257.85465278  .00098368  00000+0  19966-2 0  2576
2 47874  53.1408  48.1766 0001537  49.5555 124.3093 15.45712618    17

Volg STARLINK-2330 in realtime met AllMySat

Download on the App Store